McCook, NE

5:40 PM CDT on August 29, 2016 (GMT -0500)
McCook Municipal

Weather History for KMCK - July, 2012

Change the Weather History Date:

Tuesday, July 17, 2012

  Actual Average Record
Temperature  
Mean Temperature 84 °F 76 °F  
Max Temperature 101 °F 90 °F 108 °F (1936)
Min Temperature 67 °F 62 °F 52 °F (1917)
Cooling Degree Days 19    
Growing Degree Days 34 (Base 50)    
Moisture  
Dew Point 59 °F    
Average Humidity 45    
Maximum Humidity 70    
Minimum Humidity 21    
Precipitation  
Precipitation 0.00 in 0.10 in 0.72 in (1951)
Month to date precipitation 1.55 1.81  
Year to date precipitation 6.10 13.13  
Sea Level Pressure  
Sea Level Pressure 29.75 in    
Wind  
Wind Speed 9 mph (East)    
Max Wind Speed 24 mph    
Max Gust Speed 32 mph    
Visibility 10 miles    
Events Thunderstorm    
T = Trace of Precipitation, MM = Missing Value Source: NWS Daily Summary

Daily Weather History Graph

Daily Weather History Graph

Search for Another Location

Airport or City:

Trip Planner

Search our weather history database for the weather conditions in past years. The results will help you decide how hot, cold, wet, or windy it might be!

Date:

Astronomy

Jul. 17, 2012 Rise Set
Actual Time 6:27 AM CDT 9:09 PM CDT
Civil Twilight 5:55 AM CDT 9:40 PM CDT
Nautical Twilight 5:15 AM CDT 10:20 PM CDT
Astronomical Twilight 4:30 AM CDT 11:05 PM CDT
Moon 5:06 AM CDT (7/17) 8:00 PM CDT (7/17)
Length of Visible Light 15h 45m
Length of Day
14h 41m
Waning Crescent, 2% of the Moon is Illuminated
Jul 17
Waning Crescent
Jul 18
New
Jul 26
First Quarter
Aug 1
Full
Aug 9
Last Quarter

Hourly Weather History & Observations

Time (CDT) Temp. Heat Index Dew Point Humidity Pressure Visibility Wind Dir Wind Speed Gust Speed Precip Events Conditions
12:53 AM 80.1 °F 80.6 °F 57.9 °F 47% 29.73 in 10.0 mi South 12.7 mph - N/A   Clear
1:53 AM 78.1 °F - 57.9 °F 50% 29.73 in 10.0 mi SSE 10.4 mph - N/A   Clear
2:53 AM 75.9 °F - 57.9 °F 54% 29.72 in 10.0 mi South 5.8 mph - N/A   Clear
3:53 AM 73.0 °F - 57.9 °F 59% 29.73 in 10.0 mi South 4.6 mph - N/A   Clear
4:53 AM 69.1 °F - 59.0 °F 70% 29.72 in 10.0 mi SE 4.6 mph - N/A   Clear
5:53 AM 68.0 °F - 57.9 °F 70% 29.71 in 10.0 mi SE 8.1 mph - N/A   Clear
6:53 AM 69.1 °F - 57.9 °F 68% 29.72 in 10.0 mi ESE 5.8 mph - N/A   Clear
7:53 AM 72.0 °F - 60.1 °F 66% 29.75 in 10.0 mi Calm Calm - N/A   Clear
8:53 AM 75.0 °F - 60.1 °F 60% 29.76 in 10.0 mi Calm Calm - N/A   Clear
9:53 AM 80.1 °F 80.9 °F 60.1 °F 50% 29.76 in 10.0 mi Calm Calm - N/A   Clear
10:53 AM 86.0 °F 85.7 °F 60.1 °F 41% 29.75 in 10.0 mi SE 6.9 mph - N/A   Clear
11:53 AM 90.0 °F 90.0 °F 61.0 °F 38% 29.76 in 10.0 mi Variable 6.9 mph - N/A   Clear
12:53 PM 91.9 °F 91.2 °F 59.0 °F 33% 29.75 in 10.0 mi SE 6.9 mph - N/A   Clear
1:53 PM 95.0 °F 94.4 °F 59.0 °F 30% 29.74 in 10.0 mi Variable 3.5 mph - N/A   Clear
2:53 PM 97.0 °F 95.7 °F 57.0 °F 26% 29.73 in 10.0 mi East 8.1 mph - N/A   Clear
3:53 PM 100.0 °F 99.2 °F 57.0 °F 24% 29.71 in 10.0 mi East 11.5 mph - N/A   Clear
4:53 PM 100.9 °F 99.1 °F 54.0 °F 21% 29.70 in 10.0 mi NNE 4.6 mph - N/A   Clear
5:53 PM 100.0 °F 98.3 °F 55.0 °F 22% 29.69 in 10.0 mi East 10.4 mph - N/A   Clear
6:53 PM 98.1 °F 97.2 °F 57.9 °F 26% 29.70 in 10.0 mi East 5.8 mph - N/A   Clear
7:53 PM 90.0 °F 90.6 °F 63.0 °F 40% 29.72 in 9.0 mi NE 6.9 mph - N/A   Clear
8:53 PM 88.0 °F 87.6 °F 60.1 °F 39% 29.72 in 10.0 mi ENE 6.9 mph - N/A Thunderstorm Thunderstorm
9:23 PM 84.2 °F 83.8 °F 59.0 °F 42% 29.84 in 10.0 mi NNW 24.2 mph - N/A   Mostly Cloudy
9:33 PM 80.6 °F 81.5 °F 60.8 °F 51% 29.86 in 10.0 mi NW 19.6 mph 27.6 mph N/A Thunderstorm Scattered Clouds
9:53 PM 80.1 °F 81.1 °F 61.0 °F 52% 29.78 in 10.0 mi NNW 24.2 mph 32.2 mph N/A Thunderstorm Scattered Clouds
10:08 PM 80.6 °F 81.5 °F 60.8 °F 51% 29.87 in 10.0 mi North 15.0 mph - N/A   Partly Cloudy
10:53 PM 82.0 °F 82.0 °F 57.9 °F 44% 29.77 in 10.0 mi NE 12.7 mph - N/A   Partly Cloudy
11:49 PM 80.6 °F 81.1 °F 59.0 °F 48% 29.87 in 10.0 mi East 10.4 mph - N/A Thunderstorm Clear
11:53 PM 79.0 °F - 59.0 °F 50% 29.78 in 10.0 mi East 10.4 mph - N/A Thunderstorm Clear